WZZ66HG EPWA-LPPR

Flight info

Callsign WZZ66HG
Flight time N/A
Altitude 34000
Route SOXER N869 UVIVI DCT TOMTI DCT OKG DCT AMOSA N869 TEDGO/N0445F330 N869 NATOR/N0448F350 DCT LUTIX DCT BENOT DCT NEMOS DCT NINTU DCT MEBAK DCT REPSI DCT LERGA DCT MINSO DCT NARAK DCT AGN DCT PIPOR L866 PPN DCT MIRPO DCT DGO DCT NEA DCT ZMR L155 ADORO DCT INKIT
Aircraft A321/M-SDE3FGHIRWY/LB1

Departure

Time 2026-05-04 19:31
Airport Warsaw Chopin Airport (EPWA)

Arrival

Time N/A
Airport Francisco de Sá Carneiro Airport (LPPR)
Time Latitude Longitude Altitude Speed Heading
2026-05-04 19:11 52.17280 20.96603 336 ft 0 kts 207°
2026-05-04 19:23 52.17277 20.96601 334 ft 1 kts 207°
2026-05-04 19:23 52.17264 20.96589 335 ft 3 kts 211°
2026-05-04 19:23 52.17244 20.96554 335 ft 6 kts 225°
2026-05-04 19:23 52.17202 20.96560 334 ft 8 kts 152°
2026-05-04 19:24 52.17139 20.96616 337 ft 13 kts 152°
2026-05-04 19:24 52.17048 20.96696 335 ft 17 kts 152°
2026-05-04 19:24 52.16931 20.96798 337 ft 20 kts 152°
2026-05-04 19:24 52.16805 20.96907 337 ft 20 kts 152°
2026-05-04 19:25 52.16688 20.97012 336 ft 16 kts 143°
2026-05-04 19:25 52.16630 20.97171 334 ft 17 kts 115°
2026-05-04 19:25 52.16582 20.97344 337 ft 17 kts 115°
2026-05-04 19:25 52.16533 20.97519 337 ft 17 kts 114°
2026-05-04 19:26 52.16483 20.97694 337 ft 17 kts 114°
2026-05-04 19:26 52.16444 20.97803 337 ft 7 kts 149°
2026-05-04 19:26 52.16414 20.97803 338 ft 7 kts 191°
2026-05-04 19:26 52.16384 20.97782 337 ft 0 kts 207°
2026-05-04 19:28 52.16377 20.97776 338 ft 3 kts 207°
2026-05-04 19:28 52.16338 20.97746 336 ft 9 kts 205°
2026-05-04 19:28 52.16311 20.97669 337 ft 8 kts 273°
2026-05-04 19:28 52.16318 20.97629 336 ft 0 kts 292°
2026-05-04 19:30 52.16355 20.97490 337 ft 44 kts 294°
2026-05-04 19:31 52.16583 20.96680 336 ft 111 kts 295°
2026-05-04 19:31 52.16983 20.95246 346 ft 165 kts 294°
2026-05-04 19:31 52.17475 20.93452 814 ft 171 kts 293°
2026-05-04 19:31 52.17953 20.91730 1692 ft 162 kts 291°
2026-05-04 19:32 52.18261 20.89977 2217 ft 165 kts 268°
2026-05-04 19:32 52.18131 20.88046 2499 ft 179 kts 267°
2026-05-04 19:32 52.18005 20.85917 2682 ft 199 kts 258°
2026-05-04 19:32 52.17684 20.83608 2814 ft 218 kts 256°
2026-05-04 19:33 52.17288 20.81078 2944 ft 243 kts 255°
2026-05-04 19:33 52.16864 20.78386 3420 ft 253 kts 256°
2026-05-04 19:33 52.16433 20.75589 4081 ft 256 kts 256°
2026-05-04 19:33 52.16009 20.72771 4800 ft 257 kts 256°
2026-05-04 19:34 52.15587 20.69928 5486 ft 258 kts 255°
2026-05-04 19:34 52.15170 20.67073 6184 ft 260 kts 256°
2026-05-04 19:34 52.14756 20.64197 6828 ft 262 kts 256°
2026-05-04 19:34 52.14339 20.61296 7449 ft 264 kts 256°
2026-05-04 19:35 52.13917 20.58373 8103 ft 266 kts 256°
2026-05-04 19:35 52.13489 20.55415 8714 ft 270 kts 256°
2026-05-04 19:35 52.13059 20.52433 9365 ft 271 kts 256°
2026-05-04 19:35 52.12627 20.49430 10000 ft 273 kts 256°
2026-05-04 19:36 52.12181 20.46345 10244 ft 290 kts 256°
2026-05-04 19:36 52.11663 20.43060 10387 ft 309 kts 253°
2026-05-04 19:36 52.11016 20.39610 10550 ft 326 kts 251°
2026-05-04 19:36 52.10297 20.36066 11015 ft 331 kts 251°
2026-05-04 19:37 52.09556 20.32509 11582 ft 334 kts 250°
2026-05-04 19:37 52.08808 20.28922 12185 ft 335 kts 250°
2026-05-04 19:37 52.08065 20.25319 12789 ft 337 kts 250°
2026-05-04 19:37 52.07335 20.21741 13383 ft 339 kts 251°
2026-05-04 19:38 52.06599 20.18089 13967 ft 341 kts 251°
2026-05-04 19:38 52.05857 20.14408 14486 ft 344 kts 251°
2026-05-04 19:38 52.05108 20.10699 14989 ft 347 kts 251°
2026-05-04 19:38 52.04352 20.06963 15488 ft 350 kts 251°